Temperature
15 15 16 16 13 10 11 11 11 11 12 13 13 13 13 13 13 13 14 14 14 14 13 12 12 12 12 12 12 12 12 12 12 12 12 12 12 12 13 13 13 13 13 13 13 13 13 13 13
15 15 15 15 11 11 11 11 11 11 12 13 13 13 13 12 13 13 13 13 13 13 13 12 12 12 12 12 12 12 12 12 12 12 12 12 12 12 12 12 13 13 13 13 13 13 13 13 13
14 15 15 10 10 11 12 11 10 11 12 12 12 12 12 12 12 13 13 13 13 13 12 12 11 11 12 12 12 12 12 12 12 12 12 12 11 12 12 12 12 12 12 13 13 13 13 13 13
14 14 13 10 11 10 11 11 10 11 12 12 12 11 12 12 12 13 13 13 12 12 12 12 11 11 11 11 12 12 12 12 12 11 11 11 11 11 11 12 12 12 12 12 13 13 13 13 12
14 14 10 9 10 10 10 10 11 10 11 11 11 10 11 12 12 12 13 12 12 12 12 11 11 11 11 11 12 12 11 11 11 11 11 11 11 11 11 11 11 12 12 12 12 12 12 12 12
14 10 10 10 10 10 9 11 11 10 10 10 11 10 11 12 12 12 12 12 12 12 11 11 11 11 11 11 11 11 11 11 11 11 11 11 11 11 11 11 11 11 11 11 11 12 12 12 12
12 9 9 10 9 10 10 11 11 9 9 10 11 10 10 11 12 11 11 11 11 11 11 11 11 11 11 11 11 11 11 11 11 11 11 11 11 11 11 11 11 11 11 11 11 11 11 11 11
12 8 9 8 9 10 10 11 11 11 10 11 11 10 10 11 11 11 11 10 10 10 10 10 10 10 10 11 11 11 11 11 11 11 10 10 10 10 10 10 10 10 10 10 10 11 11 11 11
12 8 9 9 9 10 10 10 10 11 10 10 10 11 11 11 11 10 10 10 10 10 10 10 10 10 10 10 10 10 10 10 10 10 10 10 10 10 10 10 10 10 10 10 10 10 10 10 10
10 8 9 9 9 9 9 10 10 10 9 9 9 10 11 11 10 10 10 10 10 10 10 10 10 10 10 10 10 10 10 10 10 10 10 10 10 10 10 10 9 9 10 9 10 10 10 10 10
8 8 9 9 10 10 9 9 10 9 8 9 10 10 10 10 10 10 10 10 10 10 10 10 10 10 10 10 10 10 10 10 9 9 9 9 9 9 9 9 9 9 9 9 9 9 9 9 9
7 7 8 9 10 9 9 9 8 9 10 11 11 11 10 10 10 10 10 10 9 9 10 10 9 9 9 9 9 9 9 9 9 9 9 9 9 9 9 9 9 9 9 9 9 9 9 9 9
7 7 8 8 9 8 8 8 8 8 10 10 10 10 10 10 10 9 9 9 9 9 9 9 9 9 9 9 9 9 9 9 9 9 9 9 9 9 9 8 8 8 8 9 8 8 8 8 8
7 7 7 8 8 8 7 7 7 8 9 9 9 9 9 9 9 9 8 8 9 9 9 9 9 9 9 9 9 9 9 9 9 8 9 8 8 8 8 8 8 8 8 8 8 8 8 8 8
7 7 7 7 7 7 7 7 6 8 8 8 8 8 8 8 8 8 9 8 8 8 8 8 8 8 8 8 8 8 8 8 8 8 8 8 8 8 8 8 7 7 7 7 7 7 7 7 7
7 7 7 7 7 7 7 7 7 7 7 6 6 7 7 7 7 8 8 8 8 8 8 8 8 8 8 8 8 8 8 8 8 8 8 8 7 7 7 7 7 7 7 7 7 7 7 7 7
6 6 6 6 6 6 6 6 6 6 6 5 5 6 6 6 7 7 7 8 8 8 8 8 8 8 8 8 8 8 8 8 7 7 7 7 7 7 7 6 6 6 6 6 6 6 6 6 6
6 6 6 6 6 5 5 5 5 5 5 5 5 5 5 6 6 7 7 7 8 8 8 8 8 7 7 7 7 7 7 7 7 7 7 7 6 6 6 6 6 6 6 6 6 6 5 5 5
6 6 6 6 6 5 5 5 5 5 4 4 4 4 4 5 6 6 7 7 7 7 7 7 7 7 7 7 7 7 7 7 6 6 6 6 6 6 6 6 6 5 5 5 5 5 5 5 5
6 6 5 5 5 5 4 4 4 4 4 4 4 3 4 4 5 6 6 6 7 7 7 7 7 7 7 6 7 6 6 6 6 6 6 6 5 5 5 5 5 5 5 5 5 5 4 4 4
5 5 5 5 5 5 4 5 4 4 4 3 3 3 4 4 4 5 5 6 6 6 6 6 6 6 6 6 6 6 6 6 5 5 5 5 5 5 5 5 5 5 5 4 4 4 4 4 4
5 5 5 5 4 4 4 4 4 4 3 3 2 3 3 3 4 4 5 5 5 5 6 6 6 6 6 5 5 6 6 6 5 5 5 5 5 5 5 4 4 4 4 4 4 4 3 3 3
4 4 4 4 4 3 3 3 4 3 3 3 2 2 3 3 3 4 4 5 5 5 5 5 5 5 5 5 5 5 5 5 5 5 4 4 4 4 4 4 4 4 4 3 3 3 3 3 3
3 3 3 3 3 4 3 3 3 2 3 3 2 2 2 2 3 3 3 4 4 4 4 5 5 5 5 5 4 4 4 4 4 4 4 4 4 4 4 4 3 3 3 3 3 3 2 2 2
3 3 4 4 3 3 2 3 3 2 2 2 1 1 2 2 2 3 3 3 3 4 4 4 4 4 4 4 4 4 4 4 4 4 4 4 3 3 3 3 3 3 3 2 2 2 2 2 2
2 3 4 4 3 3 2 2 2 1 1 1 1 1 1 2 2 2 2 3 3 3 3 3 3 4 3 3 3 3 3 3 3 3 3 3 3 3 3 3 3 2 2 2 2 1 1 1 1
2 2 2 2 2 2 2 1 1 1 0 -0 -0 -0 0 1 2 2 2 2 2 3 3 3 3 3 3 3 3 3 3 3 3 2 2 2 2 2 2 2 2 2 1 1 1 1 1 1 1
2 1 1 2 3 3 2 1 2 1 0 -1 -1 -1 -1 0 1 1 1 2 2 2 3 3 3 3 2 2 2 2 2 2 2 2 2 2 2 2 2 1 1 1 1 1 1 1 0 0 0
1 1 1 1 1 2 2 2 1 0 -1 -1 -2 -1 -1 -1 0 1 1 1 1 2 2 2 2 2 2 2 2 2 2 1 1 1 1 1 1 1 1 1 1 0 0 0 0 -0 -0 -0 -0
1 0 0 1 1 -0 1 1 -0 -2 -2 -2 -2 -2 -1 -1 -0 -0 0 0 1 1 1 1 1 1 1 1 1 1 1 1 1 0 0 0 0 0 0 0 -0 -0 -0 -1 -1 -1 -1 -1 -1
Wind_Speed
4 3 3 4 5 3 4 5 3 2 2 1 2 3 5 5 4 3 1 3 5 7 8 10 13 13 12 12 12 12 12 12 13 12 12 13 13 14 14 14 15 15 15 15 15 16 16 16 16
1 3 5 5 4 3 6 5 5 5 4 2 2 2 2 2 1 1 0 2 6 8 8 10 14 13 13 13 13 13 12 13 13 13 13 13 13 14 14 15 15 15 15 15 15 16 16 16 16
2 4 4 4 4 8 6 5 6 2 2 1 1 0 2 2 1 2 1 4 7 7 8 10 14 13 13 13 13 13 13 13 13 13 13 13 14 14 14 15 15 15 15 15 15 16 16 16 16
4 4 4 3 7 6 5 3 4 3 1 1 2 1 0 0 1 2 3 6 8 7 8 11 14 13 13 13 13 13 13 13 13 13 13 14 14 14 14 14 15 15 15 15 16 16 16 16 16
4 4 3 2 7 4 3 3 4 3 2 1 3 2 1 1 2 5 6 7 8 7 8 11 14 13 13 13 13 13 13 13 13 13 13 14 14 14 14 14 14 14 14 15 15 15 15 15 15
3 4 3 7 7 4 3 3 3 3 2 2 4 3 2 1 3 4 6 6 7 7 7 9 13 13 13 13 13 13 12 13 13 13 13 13 14 13 13 14 14 14 14 14 15 15 15 15 16
4 4 5 6 5 5 4 4 5 4 4 4 4 4 2 0 2 5 6 7 7 7 8 8 9 11 13 13 13 13 13 13 13 13 13 13 13 13 13 13 14 14 15 15 15 15 15 15 16
4 4 3 5 6 6 4 3 3 5 4 2 5 5 5 3 4 6 6 6 5 6 6 7 9 10 11 11 12 13 13 13 13 13 14 14 13 13 12 12 13 14 14 15 15 15 16 16 16
4 2 7 8 7 5 3 3 0 1 4 1 1 2 2 7 7 7 5 4 4 5 4 6 8 9 10 10 11 12 12 12 13 13 13 13 12 12 11 12 13 14 15 15 15 15 16 16 16
3 6 9 5 5 4 3 4 4 2 2 2 1 1 4 8 9 9 8 8 7 6 6 5 7 8 9 9 10 10 10 11 11 11 12 12 12 12 11 12 13 14 15 15 15 15 15 14 13
3 6 4 3 2 2 3 3 3 5 5 7 6 5 7 8 9 9 9 9 7 6 6 6 7 8 8 7 8 8 9 9 10 11 11 11 12 11 11 11 11 12 13 13 13 14 13 12 11
3 3 3 3 2 2 3 3 3 5 7 4 5 8 9 11 11 10 9 8 6 6 6 5 7 8 8 8 7 7 7 7 7 9 10 10 9 8 9 9 10 10 10 11 11 11 12 12 12
4 4 3 2 1 1 1 3 4 5 4 0 4 7 9 10 10 8 7 6 6 6 7 6 7 8 8 7 7 6 6 7 7 8 9 9 8 7 7 8 9 9 10 10 9 9 10 10 11
3 2 3 2 2 1 3 4 3 6 2 1 4 6 8 9 8 6 6 7 7 7 7 6 7 8 8 7 6 6 6 7 8 7 8 9 9 8 7 7 7 8 9 9 9 9 8 8 9
1 1 3 3 3 2 1 5 6 5 1 2 3 4 5 6 5 7 8 7 7 7 7 7 6 8 8 8 7 7 7 7 6 7 8 9 9 9 8 6 6 7 9 9 9 9 9 8 8
1 0 3 3 2 1 3 9 4 1 3 4 3 4 4 4 5 5 5 5 5 6 7 8 7 8 8 7 6 6 6 7 6 7 8 8 8 9 9 7 6 7 8 8 7 6 5 5 5
1 3 5 4 2 2 4 7 4 1 3 4 4 4 4 4 4 4 4 4 5 6 8 8 7 8 8 7 6 6 6 6 5 6 7 7 8 9 9 7 6 8 8 6 6 5 4 5 5
5 4 4 5 2 2 5 7 6 2 3 4 4 4 4 5 6 4 4 4 3 4 6 7 7 7 8 7 5 5 4 4 4 5 5 7 8 9 8 7 7 8 6 4 5 5 4 4 4
3 3 4 4 3 3 6 8 8 3 3 4 3 3 4 5 3 2 3 3 3 3 5 7 8 7 7 5 5 4 3 2 2 3 5 6 7 8 8 7 6 6 5 4 5 5 6 4 3
3 4 5 4 2 3 4 7 6 4 3 3 4 4 4 3 2 1 2 3 4 4 5 6 8 8 8 6 4 3 4 3 3 3 4 5 7 7 7 7 6 6 5 5 5 5 3 2 2
3 4 4 4 2 1 3 7 4 3 1 1 1 2 2 3 3 2 2 3 4 4 6 6 7 8 7 7 5 5 4 3 2 2 2 3 5 6 7 7 6 6 5 5 5 5 4 3 2
5 3 3 2 1 4 1 5 6 3 3 3 3 3 3 3 2 1 1 2 4 4 4 5 6 7 7 8 8 8 6 5 4 4 3 3 5 6 7 7 7 6 5 5 4 3 3 4 3
3 1 2 2 2 3 2 3 7 1 4 5 4 3 3 2 2 2 2 3 2 3 3 4 5 6 7 7 8 8 6 4 4 4 5 4 3 4 6 7 7 6 4 5 4 3 3 3 3
1 1 1 2 2 4 5 5 6 2 4 4 4 3 3 2 2 1 1 1 1 2 2 3 5 5 6 7 7 7 7 7 7 6 5 4 3 3 4 6 6 6 5 5 4 4 4 3 3
2 3 2 2 1 6 2 4 6 3 2 3 4 4 3 2 1 1 1 1 1 2 2 2 3 5 5 6 6 7 7 8 8 7 6 5 4 3 4 4 5 5 5 6 5 4 4 4 4
3 4 4 3 4 4 1 5 5 1 2 3 3 2 1 1 1 1 2 2 2 2 2 2 3 4 5 6 6 6 6 5 5 6 6 5 4 4 4 5 5 5 6 6 5 4 3 3 3
3 3 2 3 1 2 4 4 5 2 5 5 4 3 2 2 2 1 1 2 2 2 2 3 3 3 4 5 5 5 6 5 5 5 5 4 4 4 5 5 5 5 5 6 5 4 4 3 3
2 4 3 2 2 4 4 4 4 4 5 6 6 5 5 3 2 1 0 1 1 1 1 2 3 3 3 4 5 4 5 5 5 5 5 5 5 5 5 5 5 5 5 5 5 4 4 4 3
2 2 2 2 2 3 4 5 2 2 3 4 5 5 4 3 3 2 2 1 1 1 1 1 2 2 3 3 4 4 5 5 5 5 5 5 5 5 6 5 5 6 6 5 6 5 5 5 3
3 4 4 3 4 3 3 5 2 1 3 4 5 5 4 3 3 2 2 2 2 2 1 1 2 2 2 3 4 4 4 5 5 5 5 5 5 5 5 5 5 5 5 6 6 6 5 5 5
Wind_Direction
354 58 75 62 65 65 224 227 198 200 212 213 165 152 159 165 167 193 309 150 135 135 143 151 144 138 133 127 119 114 110 107 102 97 93 88 83 81 80 80 77 76 76 77 78 77 76 77 77
45 74 62 70 121 203 245 216 205 210 183 120 71 120 133 206 139 102 96 157 133 131 136 144 141 138 133 128 122 118 114 110 105 101 96 92 88 83 81 79 77 76 75 76 77 76 76 76 76
98 61 93 99 162 200 216 209 207 214 188 136 104 61 153 184 167 196 215 150 121 120 127 140 140 138 135 130 125 122 117 113 108 103 99 95 90 85 81 79 78 77 75 76 77 76 76 75 73
94 59 64 114 217 220 203 199 177 156 143 115 143 129 252 64 191 184 132 132 122 116 122 139 140 139 135 130 126 122 118 114 109 105 101 96 91 87 83 80 79 78 77 76 77 77 76 75 73
67 92 106 222 237 237 225 206 173 168 178 167 150 175 245 1 76 108 119 130 131 124 120 136 139 139 135 130 126 123 120 117 112 107 104 98 94 90 86 82 80 79 78 77 78 77 77 76 75
76 93 155 222 235 242 235 203 160 172 181 168 158 169 227 57 99 114 121 125 122 118 112 125 141 139 136 133 129 125 120 117 112 107 104 100 96 92 88 85 82 80 79 78 78 78 77 76 75
129 138 192 208 226 240 222 178 168 183 201 203 168 159 233 262 132 122 118 114 113 112 111 108 122 131 133 131 127 122 118 115 111 107 102 99 96 93 90 88 85 81 79 79 79 79 77 75 74
133 131 192 206 212 235 201 170 184 180 203 172 151 168 219 209 138 114 105 110 119 117 116 112 111 115 118 123 125 121 118 114 110 106 101 98 95 93 90 88 87 84 81 78 79 80 78 76 73
106 146 214 210 200 218 183 169 209 118 132 146 199 208 213 135 131 121 112 114 138 141 131 124 115 112 115 119 122 118 114 110 107 103 101 95 88 86 84 87 88 85 82 79 78 80 77 76 72
133 200 222 206 190 186 181 180 177 142 172 221 265 17 115 135 148 154 160 166 171 173 162 140 129 122 118 119 116 110 107 104 100 98 97 93 89 86 84 85 86 84 81 78 74 73 72 69 66
169 208 221 229 227 184 183 189 173 159 222 223 213 185 157 155 162 172 179 178 178 178 169 154 140 131 127 118 114 107 106 103 100 101 101 98 92 87 82 78 75 75 74 70 68 63 61 63 64
180 237 224 238 229 189 191 184 198 208 230 235 196 164 164 170 179 185 188 183 174 175 173 161 147 139 132 127 122 117 112 107 104 108 109 104 92 84 79 77 74 73 74 72 67 66 61 60 62
219 236 238 225 226 187 172 228 232 252 265 22 124 152 172 182 189 193 192 180 173 183 180 167 157 149 141 132 130 125 122 120 118 115 113 113 104 95 86 82 79 78 79 78 75 71 65 61 59
217 235 259 268 248 232 208 260 254 265 262 152 153 176 187 192 194 189 191 190 188 188 183 171 164 155 146 142 138 131 130 128 123 118 120 119 115 108 99 89 83 81 82 84 82 78 72 63 62
188 267 296 273 242 233 161 278 253 268 172 167 188 196 194 202 195 199 199 197 192 187 179 172 169 158 154 148 142 135 133 130 124 124 125 122 121 118 109 98 89 87 90 89 85 79 75 69 63
69 79 262 275 212 201 173 255 276 239 168 196 208 209 210 216 213 213 205 204 194 180 178 174 170 165 159 150 140 135 134 130 127 128 126 125 125 125 116 106 100 101 97 93 90 83 83 70 63
48 239 245 273 217 156 191 253 292 108 176 212 222 221 225 236 239 223 206 201 198 185 175 174 167 169 161 146 133 126 125 124 128 128 126 130 132 131 122 114 111 110 99 91 93 88 91 84 70
221 219 231 238 230 168 222 256 285 246 210 224 229 233 234 236 242 228 207 196 188 178 170 170 165 163 151 138 123 114 108 108 116 122 129 133 134 134 125 116 116 114 104 96 97 99 84 89 83
204 205 235 244 230 209 239 261 272 258 229 235 237 236 244 246 259 238 205 180 162 165 170 170 165 162 155 152 149 146 148 137 119 115 128 131 134 136 129 123 119 115 114 117 118 112 96 82 83
214 233 253 279 254 220 258 271 270 246 223 223 227 233 244 265 316 295 216 180 177 182 182 174 172 167 166 165 154 143 137 136 128 118 122 130 135 140 139 135 131 128 125 129 130 122 107 88 51
238 223 234 254 303 267 299 290 268 259 232 287 253 239 239 234 239 244 217 198 180 186 191 185 178 170 165 153 135 123 108 99 119 134 142 130 140 144 143 143 137 138 139 149 149 140 127 132 55
250 241 225 228 236 274 201 278 273 255 276 283 275 260 252 253 242 218 194 196 194 198 189 183 172 168 163 156 159 158 161 165 175 164 160 138 142 147 147 146 142 140 139 146 156 136 137 141 134
236 284 219 212 196 281 222 222 283 293 272 280 278 271 260 251 227 209 204 202 193 180 173 172 162 162 163 163 167 166 164 157 146 141 146 147 135 145 148 149 147 143 143 148 146 132 131 139 143
201 41 46 63 102 260 226 196 278 258 252 291 290 284 270 251 236 215 167 123 136 129 136 145 156 161 164 165 166 168 166 156 152 156 161 158 147 138 145 149 150 152 151 154 154 144 137 135 127
59 88 9 335 266 248 200 198 249 261 281 273 279 275 276 255 211 178 135 150 151 143 136 140 157 166 166 166 170 173 170 166 170 172 173 167 163 167 170 153 153 157 159 158 153 143 142 139 137
216 159 175 218 233 274 247 226 247 275 340 335 315 295 298 300 285 210 188 175 167 159 153 157 166 168 167 170 176 173 169 170 173 172 171 175 177 175 167 158 156 158 158 157 151 145 144 139 139
153 199 192 150 196 256 262 282 291 355 352 351 345 347 317 292 282 258 189 163 162 161 174 179 172 167 169 173 166 166 168 169 170 168 164 165 163 159 153 152 152 153 155 153 147 142 146 139 141
147 154 104 144 202 249 271 262 262 304 321 335 336 329 324 328 319 316 324 162 168 168 168 164 166 173 169 165 167 167 167 167 162 161 164 165 159 151 149 154 155 153 153 152 145 144 144 142 149
127 142 148 168 193 199 249 264 247 253 301 312 313 320 316 315 319 327 348 15 56 70 100 132 152 147 148 156 156 156 159 157 153 161 170 168 158 156 159 160 157 157 158 154 152 156 153 153 156
176 182 164 186 239 212 220 260 315 351 338 333 321 324 330 329 336 350 15 36 47 47 51 109 159 158 158 153 153 155 155 154 157 164 167 162 163 162 158 153 154 159 160 160 162 166 162 163 169
Height
1487 1488 1490 1493 1498 1508 1508 1504 1501 1500 1499 1498 1498 1499 1500 1502 1506 1509 1504 1502 1504 1507 1509 1512 1514 1516 1518 1520 1521 1522 1523 1524 1524 1525 1526 1527 1528 1528 1529 1529 1530 1530 1531 1531 1532 1533 1534 1534 1535
1486 1488 1491 1492 1502 1510 1506 1500 1499 1496 1496 1497 1497 1498 1499 1500 1501 1501 1500 1502 1504 1507 1509 1511 1514 1516 1518 1520 1521 1522 1523 1524 1525 1525 1526 1527 1528 1529 1529 1530 1531 1531 1532 1532 1533 1534 1534 1535 1536
1485 1488 1490 1494 1502 1503 1499 1496 1495 1495 1495 1496 1497 1497 1498 1499 1499 1499 1500 1502 1504 1507 1509 1511 1514 1516 1518 1520 1521 1522 1523 1524 1525 1526 1527 1527 1528 1529 1530 1531 1531 1532 1532 1533 1534 1534 1535 1536 1537
1485 1488 1490 1497 1498 1496 1494 1493 1493 1494 1495 1495 1496 1497 1498 1499 1499 1499 1500 1501 1504 1507 1509 1511 1514 1516 1518 1519 1521 1522 1523 1524 1525 1526 1527 1528 1529 1529 1530 1531 1532 1532 1533 1534 1534 1535 1536 1537 1538
1484 1486 1493 1498 1495 1493 1492 1491 1492 1493 1494 1494 1495 1496 1496 1497 1498 1498 1500 1501 1504 1506 1509 1511 1513 1516 1517 1519 1521 1522 1523 1524 1525 1526 1527 1528 1529 1530 1531 1532 1532 1533 1534 1534 1535 1536 1537 1538 1538
1484 1485 1496 1497 1493 1491 1490 1490 1491 1492 1493 1494 1494 1495 1495 1496 1497 1498 1499 1501 1504 1506 1509 1511 1513 1515 1517 1519 1520 1522 1523 1524 1525 1526 1527 1528 1529 1530 1531 1532 1533 1533 1534 1535 1535 1536 1537 1538 1539
1483 1487 1492 1492 1492 1490 1489 1488 1489 1490 1491 1492 1493 1494 1493 1494 1496 1497 1499 1501 1504 1506 1508 1511 1513 1515 1517 1519 1520 1522 1523 1524 1525 1527 1528 1528 1529 1530 1531 1532 1533 1534 1534 1535 1536 1536 1538 1539 1539
1480 1486 1490 1491 1490 1488 1486 1486 1487 1488 1489 1491 1492 1492 1492 1493 1494 1496 1499 1501 1504 1506 1508 1510 1512 1514 1516 1518 1520 1521 1523 1524 1526 1527 1528 1529 1530 1531 1532 1533 1533 1534 1534 1535 1536 1537 1538 1539 1540
1479 1487 1487 1486 1487 1485 1484 1485 1486 1487 1488 1489 1490 1490 1491 1492 1493 1495 1497 1500 1502 1505 1507 1509 1511 1514 1516 1518 1520 1521 1523 1525 1526 1527 1528 1529 1530 1531 1532 1533 1533 1534 1535 1535 1536 1537 1538 1539 1540
1478 1484 1480 1480 1480 1481 1482 1483 1485 1486 1487 1487 1487 1488 1489 1490 1492 1493 1495 1497 1500 1502 1505 1507 1510 1512 1515 1517 1519 1521 1522 1524 1525 1526 1527 1529 1530 1531 1532 1533 1533 1534 1535 1535 1536 1537 1538 1539 1540
1477 1479 1477 1478 1478 1479 1481 1482 1484 1484 1485 1484 1484 1485 1486 1488 1490 1492 1494 1496 1498 1501 1503 1506 1508 1511 1513 1516 1518 1520 1521 1523 1525 1526 1527 1528 1529 1530 1531 1532 1533 1534 1534 1535 1536 1537 1538 1538 1539
1477 1477 1477 1477 1478 1479 1480 1481 1482 1482 1481 1482 1483 1484 1485 1486 1488 1490 1492 1495 1497 1499 1501 1504 1507 1509 1512 1514 1516 1518 1520 1522 1523 1525 1526 1528 1529 1530 1531 1532 1533 1533 1534 1535 1536 1537 1538 1539 1539
1475 1475 1476 1477 1477 1478 1479 1480 1480 1479 1479 1480 1481 1482 1483 1485 1487 1489 1491 1492 1494 1497 1499 1502 1505 1507 1510 1512 1515 1517 1519 1521 1522 1524 1525 1527 1528 1529 1530 1531 1532 1533 1534 1535 1536 1536 1538 1538 1539
1474 1475 1476 1476 1476 1477 1478 1478 1479 1475 1477 1478 1478 1479 1481 1483 1485 1487 1488 1490 1492 1494 1497 1499 1502 1505 1508 1510 1513 1515 1517 1519 1521 1523 1524 1526 1527 1528 1529 1530 1532 1533 1534 1534 1535 1536 1537 1538 1538
1474 1476 1475 1475 1475 1476 1478 1478 1476 1475 1476 1476 1476 1477 1479 1481 1482 1483 1485 1488 1490 1492 1495 1497 1499 1503 1505 1508 1511 1513 1515 1517 1519 1521 1523 1525 1526 1527 1528 1529 1530 1532 1533 1534 1535 1536 1537 1537 1538
1474 1477 1478 1475 1475 1475 1480 1477 1474 1474 1474 1474 1475 1476 1477 1478 1479 1481 1483 1484 1487 1490 1492 1495 1497 1500 1503 1506 1508 1511 1513 1515 1517 1519 1521 1523 1525 1526 1527 1528 1529 1530 1532 1533 1534 1535 1536 1536 1537
1477 1479 1477 1477 1475 1475 1477 1475 1473 1473 1473 1473 1474 1474 1475 1476 1477 1478 1480 1482 1484 1486 1489 1492 1494 1497 1500 1503 1506 1508 1510 1513 1515 1517 1519 1521 1523 1524 1526 1527 1528 1529 1530 1531 1533 1534 1534 1535 1536
1477 1477 1477 1477 1475 1476 1477 1475 1472 1471 1472 1472 1472 1472 1473 1473 1474 1475 1477 1479 1481 1483 1486 1489 1491 1494 1497 1500 1503 1505 1508 1510 1512 1514 1516 1519 1520 1522 1524 1525 1526 1527 1529 1530 1531 1532 1533 1534 1535
1473 1475 1475 1475 1474 1475 1475 1473 1470 1469 1470 1469 1470 1470 1470 1470 1472 1473 1474 1476 1477 1480 1483 1485 1488 1491 1494 1497 1499 1502 1504 1507 1509 1512 1514 1516 1518 1519 1521 1523 1524 1525 1527 1528 1529 1530 1531 1532 1533
1473 1474 1475 1474 1473 1474 1475 1472 1468 1467 1467 1467 1467 1467 1467 1468 1468 1469 1470 1472 1474 1476 1479 1482 1485 1488 1491 1494 1497 1500 1502 1505 1507 1509 1511 1513 1515 1516 1518 1520 1522 1523 1525 1526 1527 1528 1529 1530 1532
1472 1473 1474 1474 1473 1473 1475 1470 1466 1464 1464 1464 1464 1465 1466 1466 1466 1466 1467 1469 1471 1473 1476 1479 1482 1484 1488 1491 1494 1497 1500 1502 1504 1506 1508 1510 1512 1514 1516 1518 1519 1521 1522 1523 1524 1526 1527 1528 1530
1472 1471 1472 1473 1475 1477 1475 1476 1464 1463 1463 1462 1462 1462 1462 1463 1463 1464 1465 1466 1468 1471 1474 1477 1479 1482 1485 1488 1491 1493 1495 1498 1500 1503 1506 1507 1510 1512 1513 1515 1517 1518 1519 1521 1522 1524 1525 1526 1527
1471 1470 1472 1473 1475 1478 1477 1478 1466 1464 1462 1460 1460 1460 1460 1461 1461 1462 1463 1465 1467 1470 1472 1474 1477 1480 1483 1485 1488 1491 1493 1495 1498 1500 1503 1505 1507 1509 1511 1513 1514 1516 1517 1519 1520 1521 1523 1524 1526
1470 1472 1473 1476 1477 1478 1475 1478 1468 1466 1462 1459 1458 1458 1458 1459 1460 1461 1462 1464 1465 1467 1470 1472 1474 1477 1480 1483 1485 1488 1490 1492 1495 1497 1499 1502 1503 1506 1507 1509 1511 1513 1515 1516 1518 1519 1521 1522 1524
1471 1474 1477 1476 1479 1475 1474 1474 1469 1462 1460 1459 1458 1457 1456 1457 1458 1458 1459 1461 1463 1465 1467 1469 1472 1475 1477 1480 1482 1484 1487 1489 1491 1494 1496 1498 1500 1502 1504 1506 1508 1510 1512 1514 1516 1517 1518 1520 1521
1473 1473 1478 1479 1478 1476 1476 1473 1465 1460 1459 1458 1457 1456 1456 1456 1457 1457 1458 1459 1461 1463 1465 1467 1469 1472 1474 1477 1479 1482 1484 1486 1488 1491 1493 1494 1497 1499 1501 1503 1505 1507 1509 1511 1513 1514 1516 1517 1519
1473 1475 1474 1480 1482 1481 1475 1472 1464 1460 1459 1458 1457 1455 1455 1455 1455 1456 1457 1458 1459 1461 1463 1465 1467 1470 1472 1474 1476 1479 1481 1483 1485 1487 1489 1491 1493 1495 1498 1500 1502 1504 1506 1507 1509 1511 1513 1514 1516
1472 1474 1479 1479 1477 1474 1473 1472 1465 1461 1460 1458 1457 1456 1455 1454 1455 1455 1456 1457 1458 1460 1462 1463 1465 1467 1469 1471 1474 1476 1478 1480 1482 1484 1486 1488 1490 1492 1494 1496 1498 1500 1502 1504 1506 1508 1510 1511 1513
1474 1476 1476 1479 1478 1476 1474 1469 1462 1461 1460 1460 1458 1456 1455 1454 1454 1454 1455 1455 1457 1458 1459 1461 1463 1465 1467 1469 1471 1473 1475 1477 1479 1481 1483 1485 1486 1488 1490 1492 1494 1496 1498 1500 1502 1504 1506 1508 1509
1472 1473 1476 1476 1477 1480 1476 1472 1461 1461 1460 1460 1458 1456 1455 1454 1454 1454 1454 1454 1455 1456 1458 1459 1461 1463 1464 1466 1468 1470 1472 1474 1476 1478 1480 1482 1483 1485 1487 1489 1490 1492 1494 1497 1498 1500 1502 1504 1506